Weather in Ermolaevo

Russia / Republic of Bashkortostan     52°42′22″N   55°48′10″E
temp.,
°C
wind,
m/s
gust,
m/s
humid.,
%
clouds,
%
prec.,
mm/h
press.,
hPa
HPBL,
m
3 march, wed
wed323:00−7ssw91595100 2.5 1009725
02:00−5ssw81495100 1.9 1006723
05:00−4ssw71396100 3.6 1005637
08:00−3sw51097100 1.6 1003453
11:00−2sw5997100 3.3 1003533
14:00−1sw6997100 1.0 1003607
17:00−1sw4798100 1.9 1002448
20:00−3wnw4796100 1.1 1002246
4 march, thu
thu423:00−7wnw4896100 1.1 1003148
02:00−10w489777 0.0 1004137
05:00−12w489787 0.1 1006148
08:00−12wnw489697 0.1 1007138
11:00−11wsw489691 0.1 1009294
14:00−8sw61093100 0.1 1008542
17:00−7ssw81394100 0.3 1007646
20:00−6ssw91694100 0.9 1006882
5 march, fri
fri523:00−4sw101795100 2.9 1004916
02:00−1wsw101594100 0.7 10031034
05:00−2wsw91595100 1.3 1005786
08:00−3sw91594100 1.1 1006717
11:00−3ssw101596100 2.5 1006756
14:00−2sw111796100 2.9 10051013
17:000sw101697100 5.1 1004952
20:000sw101697100 1.6 1003937
6 march, sat
sat623:000wsw91498100 3.3 1005794
02:00−5nnw5994100 1.4 1009365
05:00−11n369696 1.4 101387
08:00−16nne339267 0.0 101521
11:00−12ne128474 0.0 101599
14:00−7ese2372100 0.0 1014263
17:00−5se3682100 0.0 1011450
20:00−6ne3596100 1.9 1007146
7 march, sun
sun723:00−6n5896100 3.9 1005253
02:00−9nnw4895100 0.3 1005255
05:00−12wnw4895100 0.3 1008140
08:00−16w359791 0.0 101089
11:00−15w489595 0.0 1012266
14:00−13wnw579298 0.0 1013388
17:00−14w479095 0.0 1014430
20:00−20wsw239923 0.0 101521